Zurück zum Katalog

SES 19

AktivKommunikationGEO
NORAD 55971·PAYLOAD·🇱🇺 Luxembourg

Gestartet Mar 17, 2023 von Cape Canaveral Space Force Station

Loading…

TLE

AktuellSource: CelesTrak SupGP

Epoche: Sep 13, 2026, 23:30 UTC

1 55971C 23038B   26256.97916667  .00000178  00000+0  00000+0 0  2565
2 55971   0.0518 278.7045 0001617 238.6497  53.2284  1.00269173    14

Verfolge SES 19 in Echtzeit mit AllMySat

Download on the App Store